[[{"header":{"parameterUnit":"m.s-1","parameterCategory":1,"la1":30.2991,"la2":30.254,"lo1":-89.0895,"lo2":-89.0444,"dy":0.0017,"dx":0.0017,"nx":28,"ny":28,"refTime":"2024-07-19T21:00:00:Z","depth":0,"parameterNumber":2,"parameterNumberName":"U-component_of_WINDS"},"data":[0,0,0,0,0,0,0,0,0,0,0,0,0,0,0,0,0,0,0,0,0,0,0,0,0,0,0,0,0,0,0,0,0,0,0,0,0,0,0,0,0,0,0,0,0,0,0,0,0,0,0,0,0,0,0,0,0,0,-2.7341,-2.7343,0,-2.7496,-2.7497,-2.7499,-2.757,-2.757,-2.757,-2.757,-2.7733,-2.7738,-2.7742,0,0,0,0,0,0,0,0,0,0,0,0,0,-2.7111,-2.7115,-2.7341,-2.7343,-2.7345,-2.7495,-2.7498,-2.75,-2.757,-2.757,-2.757,-2.757,-2.7732,-2.7737,-2.7742,0,0,0,0,0,0,0,0,0,0,0,0,0,-2.7233,-2.7116,-2.7341,-2.7398,-2.7405,-2.7495,-2.7498,-2.75,-2.757,-2.757,-2.757,-2.757,-2.773,-2.7737,-2.7743,-2.7789,0,0,-2.7764,-2.7767,0,0,0,0,0,0,0,0,-2.7226,-2.7241,-2.7388,-2.7394,-2.7402,-2.7513,-2.7476,-2.7597,-2.7571,-2.7508,-2.757,-2.757,-2.7661,-2.7673,-2.7703,-2.7797,-2.7804,-2.7764,-2.7768,-2.7771,-2.7773,0,0,0,0,0,0,0,-2.7217,-2.7235,-2.7402,-2.739,-2.7398,-2.7418,-2.7435,-2.75,-2.7584,-2.7513,-2.7519,-2.7536,-2.7664,-2.7696,-2.7707,-2.7806,-2.7764,-2.777,-2.7774,-2.7777,-2.7946,-2.7946,0,0,0,0,0,0,-2.7199,-2.7227,-2.7397,-2.7407,-2.7311,-2.7422,-2.7441,-2.7478,-2.7583,-2.7599,-2.7536,-2.7538,-2.7685,-2.7699,-2.7713,-2.7774,-2.7771,-2.7778,-2.7781,-2.7946,-2.7946,-2.7947,0,0,0,0,0,0,-2.7194,-2.7213,-2.7391,-2.7319,-2.7343,-2.7426,-2.7467,-2.7481,-2.7513,-2.76,-2.7616,-2.7552,-2.7685,-2.7704,-2.7769,-2.778,-2.7781,-2.7787,-2.7945,-2.7946,-2.7946,-2.7895,0,0,0,0,0,0,-2.7187,-2.7211,-2.7228,-2.7319,-2.7346,-2.7443,-2.7468,-2.7484,-2.7524,-2.7529,-2.762,-2.7635,-2.7686,-2.7759,-2.7776,-2.779,-2.7792,-2.7944,-2.7945,-2.7946,-2.7896,-2.7894,-2.7892,0,0,0,0,0,-2.7178,-2.7209,-2.7229,-2.7249,-2.737,-2.7444,-2.746,-2.7517,-2.7524,-2.7543,-2.7599,-2.7632,-2.7776,-2.7765,-2.7785,-2.7801,-2.7944,-2.7945,-2.7946,-2.7897,-2.7895,-2.7892,0,0,0,0,0,0,-2.712,-2.7222,-2.7245,-2.7306,-2.7365,-2.7456,-2.7481,-2.7513,-2.7573,-2.7575,-2.7645,-2.7665,-2.7725,-2.777,-2.7755,-2.7851,-2.7863,-2.7868,-2.7819,-2.7817,-2.7815,-2.7804,-2.7798,0,0,0,0,0,-2.7114,-2.7164,-2.7251,-2.7297,-2.7325,-2.7397,-2.7432,-2.7471,-2.7536,-2.7562,-2.7623,-2.7687,-2.7746,-2.7784,-2.7844,-2.7903,-2.7924,-2.7924,-2.7922,-2.7919,-2.7923,-2.7958,-2.7959,-2.795,-2.795,-2.795,0,0,-2.7103,-2.7165,-2.7193,-2.7286,-2.7337,-2.7389,-2.7419,-2.7472,-2.7512,-2.7571,-2.7636,-2.7683,-2.7759,-2.7821,-2.7851,-2.786,-2.793,-2.7921,-2.7918,-2.7924,-2.7959,-2.796,-2.796,-2.7951,-2.795,-2.795,0,0,-2.7109,-2.716,-2.7203,-2.7253,-2.7328,-2.7376,-2.7386,-2.7472,-2.7505,-2.7571,-2.7616,-2.7665,-2.7766,-2.7818,-2.7857,-2.7881,-2.7914,-2.7899,-2.7888,-2.7921,-2.7922,-2.7923,-2.7931,-2.7933,-2.7902,-2.7902,-2.7902,0,-2.7086,-2.7164,-2.7222,-2.7272,-2.7312,-2.7366,-2.7411,-2.7457,-2.7549,-2.7576,-2.7584,-2.7711,-2.7766,-2.7841,-2.7846,-2.7877,-2.7891,-2.7889,-2.7916,-2.7918,-2.792,-2.7929,-2.7932,-2.79,-2.79,-2.79,-2.79,0,-2.7132,-2.7185,-2.7211,-2.7296,-2.7339,-2.7386,-2.7452,-2.7489,-2.7524,-2.7571,-2.7638,-2.7705,-2.7779,-2.78,-2.7835,-2.788,-2.7883,-2.7903,-2.7917,-2.7917,-2.7927,-2.7931,-2.7896,-2.7897,-2.7898,-2.7898,0,0,-2.7107,-2.7221,-2.723,-2.7269,-2.7355,-2.7399,-2.7449,-2.7519,-2.7549,-2.7611,-2.7655,-2.7739,-2.7757,-2.7802,-2.7844,-2.7872,-2.7887,-2.7889,-2.7892,-2.7886,-2.7941,-2.7925,-2.7928,-2.7908,-2.7909,-2.791,-2.7934,0,-2.7124,-2.7214,-2.7267,-2.7336,-2.7386,-2.7437,-2.7481,-2.7539,-2.7585,-2.7635,-2.7687,-2.7745,-2.7764,-2.7792,-2.7822,-2.7878,-2.7899,-2.7877,-2.7952,-2.7954,-2.7931,-2.7933,-2.7918,-2.7937,-2.7938,-2.7939,-2.794,0,-2.7157,-2.7215,-2.7288,-2.7368,-2.7391,-2.7429,-2.7497,-2.7544,-2.7612,-2.7643,-2.7692,-2.7733,-2.779,-2.7798,-2.7877,-2.7861,-2.7895,-2.7927,-2.7929,-2.7939,-2.7947,-2.7943,-2.7945,-2.7948,-2.7946,-2.7946,-2.7945,0,-2.7131,-2.7227,-2.7283,-2.7315,-2.741,-2.7435,-2.7476,-2.7543,-2.7582,-2.7643,-2.7669,-2.7736,-2.7772,-2.7824,-2.7883,-2.7884,-2.7956,-2.7969,-2.7984,-2.7983,-2.7998,-2.7996,-2.8005,-2.8018,-2.8018,-2.8018,-2.8018,0,-2.7146,-2.7188,-2.7272,-2.7307,-2.7356,-2.7417,-2.7465,-2.7511,-2.757,-2.7615,-2.7665,-2.7706,-2.7781,-2.7833,-2.7879,-2.7937,-2.7954,-2.7982,-2.7994,-2.7977,-2.7974,-2.8001,-2.8001,-2.8019,-2.8019,-2.8019,-2.8019,0,-2.7125,-2.7183,-2.7247,-2.7331,-2.7353,-2.7386,-2.7458,-2.7494,-2.7542,-2.7598,-2.7615,-2.769,-2.7753,-2.7817,-2.7902,-2.7934,-2.7991,-2.8007,-2.7967,-2.7974,-2.7986,-2.7984,-2.8012,-2.802,-2.8027,-2.8027,-2.8027,0,-2.7131,-2.7164,-2.725,-2.7283,-2.7322,-2.7374,-2.7413,-2.7475,-2.7514,-2.7593,-2.762,-2.7686,-2.7742,-2.7841,-2.7904,-2.797,-2.7988,-2.7994,-2.7999,-2.7981,-2.7989,-2.7986,-2.799,-2.7992,-2.7991,-2.7991,-2.7991,0,-2.7134,-2.716,-2.7214,-2.7277,-2.7321,-2.7374,-2.743,-2.7454,-2.7527,-2.7568,-2.7632,-2.7675,-2.7762,-2.7827,-2.79,-2.7945,-2.7981,-2.7989,-2.7996,-2.798,-2.7955,-2.7969,-2.7962,-2.7988,-2.7988,-2.7988,-2.7989,-2.7989,-2.7127,-2.7159,-2.7224,-2.7282,-2.7329,-2.7379,-2.7417,-2.7468,-2.7521,-2.7595,-2.7628,-2.7692,-2.776,-2.7861,-2.7905,-2.7957,-2.7967,-2.7977,-2.798,-2.7981,-2.7977,-2.7946,-2.7971,-2.7971,-2.7971,-2.7971,-2.7972,0,-2.7133,-2.7177,-2.7229,-2.7303,-2.7349,-2.7375,-2.7438,-2.7475,-2.753,-2.7588,-2.7642,-2.7715,-2.7779,-2.7847,-2.7915,-2.7944,-2.7962,-2.7959,-2.7958,-2.7968,-2.7965,-2.7952,-2.7944,-2.7944,-2.7944,-2.7944,-2.7944,-2.7944,-2.7141,-2.7196,-2.723,-2.731,-2.7355,-2.7416,-2.7449,-2.7496,-2.7543,-2.7622,-2.7674,-2.7717,-2.778,-2.7852,-2.7912,-2.7931,-2.7954,-2.7947,-2.797,-2.7966,-2.7968,-2.797,-2.7958,-2.7951,-2.7951,-2.7969,-2.7969,-2.7969]},{"header":{"parameterUnit":"m.s-1","parameterCategory":1,"la1":30.2991,"la2":30.254,"lo1":-89.0895,"lo2":-89.0444,"dy":0.0017,"dx":0.0017,"nx":28,"ny":28,"refTime":"2024-07-19T21:00:00:Z","depth":0,"parameterNumber":3,"parameterNumberName":"V-component_of_WINDS"},"data":[0,0,0,0,0,0,0,0,0,0,0,0,0,0,0,0,0,0,0,0,0,0,0,0,0,0,0,0,0,0,0,0,0,0,0,0,0,0,0,0,0,0,0,0,0,0,0,0,0,0,0,0,0,0,0,0,0,0,4.2451,4.2451,0,4.2424,4.2424,4.2423,4.2417,4.2417,4.2417,4.2418,4.2387,4.2386,4.2385,0,0,0,0,0,0,0,0,0,0,0,0,0,4.2495,4.2494,4.2451,4.2451,4.245,4.2424,4.2424,4.2423,4.2417,4.2417,4.2417,4.2418,4.2387,4.2386,4.2385,0,0,0,0,0,0,0,0,0,0,0,0,0,4.2473,4.2494,4.2451,4.2444,4.2443,4.2424,4.2424,4.2423,4.2417,4.2417,4.2418,4.2418,4.2387,4.2386,4.2385,4.2369,0,0,4.238,4.2379,0,0,0,0,0,0,0,0,4.2474,4.2471,4.2445,4.2444,4.2443,4.2424,4.2428,4.2405,4.2417,4.2427,4.2418,4.2418,4.2399,4.2396,4.2391,4.2368,4.2367,4.238,4.2379,4.2378,4.2378,0,0,0,0,0,0,0,4.2475,4.2472,4.244,4.2445,4.2444,4.2442,4.2439,4.2423,4.2411,4.2426,4.2425,4.2423,4.2398,4.2392,4.239,4.2366,4.238,4.2379,4.2378,4.2377,4.2331,4.2331,0,0,0,0,0,0,4.2478,4.2473,4.2441,4.2439,4.246,4.2441,4.2437,4.243,4.2412,4.2409,4.2422,4.2422,4.2394,4.2392,4.2389,4.237,4.2378,4.2377,4.2376,4.2332,4.2331,4.2331,0,0,0,0,0,0,4.2479,4.2476,4.2442,4.2456,4.2452,4.244,4.2431,4.2429,4.2423,4.2409,4.2406,4.2418,4.2395,4.2391,4.2375,4.2369,4.2376,4.2375,4.2332,4.2332,4.2331,4.2334,0,0,0,0,0,0,4.2481,4.2476,4.2471,4.2456,4.2451,4.2429,4.2431,4.2429,4.2421,4.2421,4.2404,4.2402,4.2394,4.2377,4.2373,4.2367,4.2374,4.2332,4.2332,4.2331,4.2334,4.2333,4.2333,0,0,0,0,0,4.2482,4.2471,4.247,4.2466,4.2444,4.2429,4.2426,4.2418,4.2421,4.2415,4.2406,4.2402,4.2371,4.2376,4.2371,4.2365,4.2333,4.2332,4.2331,4.2334,4.2333,4.2333,0,0,0,0,0,0,4.2484,4.2469,4.2468,4.2452,4.2442,4.2428,4.242,4.2418,4.2406,4.2406,4.2396,4.2393,4.2378,4.237,4.2375,4.235,4.2352,4.235,4.2355,4.2355,4.2354,4.2356,4.2372,0,0,0,0,0,4.2482,4.2472,4.246,4.2447,4.2442,4.2432,4.2425,4.2421,4.2409,4.2405,4.2394,4.2383,4.237,4.2362,4.235,4.2333,4.233,4.2327,4.2326,4.2326,4.2324,4.2316,4.2314,4.2329,4.2329,4.2329,0,0,4.2479,4.247,4.2464,4.2447,4.2439,4.2428,4.2428,4.2416,4.2408,4.2402,4.2387,4.2379,4.2366,4.235,4.2342,4.2343,4.232,4.2325,4.2325,4.2323,4.2315,4.2313,4.2312,4.2328,4.2328,4.2328,0,0,4.2467,4.2459,4.2448,4.2441,4.2429,4.2422,4.242,4.2407,4.2402,4.2387,4.2383,4.2372,4.2351,4.2342,4.2334,4.2321,4.2318,4.2318,4.2314,4.2306,4.2305,4.2304,4.2299,4.2298,4.2316,4.2316,4.2316,0,4.2464,4.2448,4.2443,4.2432,4.2424,4.2421,4.2409,4.2402,4.2386,4.2381,4.2382,4.2356,4.2347,4.2329,4.2326,4.232,4.2317,4.2319,4.2306,4.2304,4.2303,4.2299,4.2297,4.2316,4.2316,4.2316,4.2316,0,4.2445,4.2434,4.2427,4.2413,4.2406,4.2394,4.2387,4.2379,4.2376,4.237,4.2355,4.2344,4.233,4.2325,4.2321,4.2307,4.2308,4.2308,4.2309,4.2302,4.2298,4.2296,4.2316,4.2316,4.2316,4.2316,0,0,4.2432,4.2417,4.2414,4.2409,4.2396,4.2387,4.2376,4.2364,4.2358,4.2347,4.2338,4.2321,4.2321,4.2313,4.2308,4.2301,4.2292,4.2301,4.2301,4.23,4.2276,4.2276,4.2275,4.229,4.229,4.2289,4.2278,0,4.2418,4.2399,4.2395,4.2378,4.2368,4.2366,4.2356,4.2347,4.2341,4.2332,4.2325,4.2313,4.2314,4.2309,4.2302,4.2294,4.2287,4.2295,4.228,4.228,4.2283,4.2272,4.2272,4.2261,4.2276,4.2275,4.2275,0,4.2399,4.2391,4.2373,4.2364,4.2359,4.2351,4.234,4.2331,4.2321,4.2317,4.2309,4.2306,4.2294,4.2297,4.2281,4.2287,4.2281,4.2276,4.2275,4.2273,4.2277,4.2269,4.2257,4.2256,4.2273,4.2273,4.2273,0,4.2391,4.2375,4.2363,4.2358,4.2346,4.2341,4.2335,4.2326,4.2319,4.231,4.2305,4.2294,4.2287,4.2279,4.2272,4.2275,4.2257,4.2259,4.2253,4.2253,4.2248,4.2248,4.2234,4.2245,4.2245,4.2245,4.2245,0,4.2376,4.2366,4.2359,4.2352,4.234,4.2336,4.2324,4.2318,4.2311,4.2302,4.2299,4.229,4.2283,4.2273,4.2268,4.2255,4.2252,4.2249,4.2248,4.2249,4.2249,4.2244,4.2244,4.2245,4.2245,4.2245,4.2245,0,4.2365,4.236,4.2347,4.2337,4.2335,4.2327,4.2319,4.2311,4.2306,4.2295,4.2292,4.2284,4.2273,4.2267,4.2252,4.2249,4.2235,4.2234,4.2238,4.2238,4.2232,4.2233,4.2214,4.2211,4.2224,4.2224,4.2224,0,4.2355,4.2347,4.2338,4.2333,4.2328,4.2319,4.2312,4.2308,4.2301,4.2291,4.2285,4.2274,4.2265,4.2248,4.224,4.2229,4.2228,4.2222,4.2226,4.2228,4.2227,4.2228,4.2227,4.2221,4.2221,4.2221,4.2221,0,4.2338,4.2337,4.2329,4.232,4.2313,4.2306,4.2298,4.2294,4.2288,4.2281,4.2271,4.2264,4.2251,4.224,4.2229,4.2223,4.2221,4.222,4.2218,4.2219,4.2222,4.222,4.2236,4.222,4.222,4.222,4.222,4.222,4.2327,4.232,4.2313,4.2305,4.2299,4.2293,4.2286,4.2281,4.2273,4.2262,4.226,4.2249,4.2241,4.2226,4.222,4.2211,4.2212,4.2209,4.2208,4.2207,4.2207,4.2224,4.2209,4.2209,4.2209,4.2209,4.2209,0,4.231,4.2306,4.2298,4.2289,4.2282,4.2283,4.2275,4.2269,4.226,4.2253,4.2245,4.2234,4.2224,4.2217,4.2207,4.2201,4.22,4.2199,4.2198,4.2197,4.2207,4.221,4.22,4.22,4.22,4.22,4.22,4.22,4.2301,4.229,4.2288,4.2275,4.227,4.2261,4.2256,4.2251,4.2245,4.2233,4.2225,4.2221,4.2214,4.2204,4.2195,4.2193,4.219,4.2188,4.2186,4.2195,4.2196,4.2197,4.22,4.2188,4.2188,4.2177,4.2177,4.2177]}]]